{"data":{"norad_id":43565,"intl_designator":"2018-060B","name":"GSAT0222 (GALILEO 26)","alt_names":[],"object_type":"PAYLOAD","status":"ACTIVE","operator":null,"country":"ESA","launch_date":"2018-07-25","launch_site_code":"FRGUI","launch_vehicle":null,"mission":null,"orbit_class":"UNKNOWN","rcs_meters":null,"size_class":null,"mass_kg":null,"dimensions":null,"purposes":["earth_obs","nav"],"wikipedia_slug":null,"has_3d_model":false,"image_url":null,"decayed_at":null,"tle_current":{"epoch":"2026-05-21T21:19:12.238176Z","epoch_age_seconds":353966,"freshness":"STALE","line1":"1 43565U 18060B   26141.88833609 -.00000086  00000+0  00000+0 0  9990","line2":"2 43565  57.1815 342.4938 0001850 271.2445  88.7537  1.70475538 48767","mean_motion":1.70475538,"eccentricity":0.000185,"inclination_deg":57.1815,"raan_deg":342.4938,"arg_perigee_deg":271.2445,"mean_anomaly_deg":88.7537,"bstar":0,"rev_number":4876,"period_min":844.69597039782,"perigee_km":23216.528998472,"apogee_km":23227.481051021,"semimajor_km":29600.142024747,"source":"CELESTRAK","updated_at":"2026-05-25T13:38:24.060651Z"}}}